Location: Ostrava
(49.8330°N, 18.2830°E)
Time: 01:08:47
(UTC+02:00)

Vanguard 2 Rocket - Visible Passes

Search period start: 30 June 2015 00:00
Search period end: 10 July 2015 00:00
Orbit: 555 x 3331 km, 32.9° (Epoch: 29 June)

Date Brightness Start Highest point End Pass type
(mag) Time Alt. Az. Time Alt. Az. Time Alt. Az.
30 Jun 9.7 01:39:26 10° WSW 01:56:57 45° S 02:14:08 10° ESE visible
30 Jun 9.8 03:55:06 10° WSW 04:13:09 42° SSW 04:27:48 10° SE visible
30 Jun 9.9 22:29:19 10° S 22:41:06 26° SE 22:55:57 10° E visible
01 Jul 9.7 00:39:57 10° SW 00:56:13 42° SSE 01:13:56 10° ESE visible
01 Jul 9.8 02:54:25 10° WSW 03:12:33 45° S 03:28:46 10° SE visible
01 Jul 10.0 21:32:41 10° S 21:41:29 19° SE 21:53:10 10° E visible
01 Jul 9.7 23:41:05 10° SW 23:55:41 38° SSE 00:13:11 10° E visible
02 Jul 9.7 01:54:15 10° WSW 02:11:46 46° S 02:29:11 10° ESE visible
02 Jul 9.8 22:42:51 10° SSW 22:55:31 32° SSE 23:11:50 10° E visible
03 Jul 9.7 00:54:38 10° WSW 01:10:58 45° S 01:29:05 10° ESE visible
03 Jul 9.8 03:09:35 10° WSW 03:27:18 42° SSW 03:43:25 10° SE visible
03 Jul 9.8 21:45:23 10° S 21:55:46 25° SE 22:09:47 10° E visible
03 Jul 9.6 23:55:32 10° SW 00:10:21 42° SSE 00:28:27 10° ESE visible
04 Jul 9.7 02:09:19 10° WSW 02:26:35 45° S 02:44:00 10° SE visible
04 Jul 9.6 22:57:00 10° SW 23:10:03 37° SSE 23:27:17 10° E visible
05 Jul 9.7 01:09:35 10° WSW 01:25:48 46° S 01:44:01 10° ESE visible
05 Jul 9.9 03:24:56 10° W 03:41:58 37° SSW 03:57:42 10° SE visible
05 Jul 9.6 21:59:04 10° SSW 22:10:11 31° SSE 22:25:36 10° E visible
06 Jul 9.6 00:10:20 10° WSW 00:25:08 44° S 00:43:29 10° ESE visible
06 Jul 9.8 02:24:33 10° WSW 02:41:21 42° SSW 02:58:31 10° SE visible
06 Jul 9.5 23:11:35 10° SW 23:24:44 41° SSE 23:42:28 10° ESE visible
07 Jul 9.7 01:24:43 10° WSW 01:40:38 44° S 01:58:42 10° SE visible
07 Jul 10.0 03:40:35 10° W 03:56:33 32° SSW 04:11:26 10° SSE visible
07 Jul 9.5 22:13:22 10° SW 22:24:45 35° SSE 22:40:59 10° E visible
08 Jul 9.6 00:25:22 10° WSW 00:39:58 45° S 00:58:19 10° ESE visible
08 Jul 9.8 02:40:01 10° W 02:56:04 37° SSW 03:12:36 10° SE visible
08 Jul 9.5 21:15:43 10° SSW 21:25:12 29° SSE 21:39:05 10° E visible
08 Jul 9.5 23:26:30 10° SW 23:39:33 43° S 23:57:25 10° ESE visible
09 Jul 9.7 01:40:03 10° WSW 01:55:27 41° SSW 02:13:04 10° SE visible
09 Jul 10.1 03:56:43 10° W 04:11:03 25° SW 04:24:23 10° S visible
09 Jul 9.4 22:28:05 10° SW 22:39:28 39° SSE 22:56:06 10° ESE visible
